Mount Shasta, CA

12:55 AM PST on November 18, 2017 (GMT -0800)
Mount Shasta

Weather History for KMHS - August, 2012

Change the Weather History Date:

Friday, August 3, 2012

  Actual Average Record
Temperature  
Mean Temperature 73 °F 69 °F  
Max Temperature 95 °F 88 °F 100 °F (1931)
Min Temperature 51 °F 50 °F 34 °F (1929)
Degree Days  
Heating Degree Days 0 1  
Month to date heating degree days 0 3  
Since 1 June heating degree days 199 178  
Since 1 July heating degree days 20 36  
Cooling Degree Days 8 4  
Month to date cooling degree days 23 12  
Year to date cooling degree days 196 180  
Since 1 June cooling degree days 187 172  
Growing Degree Days 22 (Base 50)    
Moisture  
Dew Point 45 °F    
Average Humidity 40    
Maximum Humidity 71    
Minimum Humidity 17    
Precipitation  
Precipitation 0.00 in 0.01 in 0.18 in (2003)
Month to date precipitation 0.00 0.03  
Year to date precipitation 24.55 27.02  
Sea Level Pressure  
Sea Level Pressure 29.94 in    
Wind  
Wind Speed 0 mph (NE)    
Max Wind Speed 5 mph    
Max Gust Speed 10 mph    
Visibility 10 miles    
Events      
T = Trace of Precipitation, MM = Missing Value Source: NWS Daily Summary

Daily Weather History Graph

Daily Weather History Graph

Search for Another Location

Airport or City:

Trip Planner

Search our weather history database for the weather conditions in past years. The results will help you decide how hot, cold, wet, or windy it might be!

Date:

Astronomy

Aug. 03, 2012 Rise Set
Actual Time 6:06 AM PDT 8:23 PM PDT
Civil Twilight 5:36 AM PDT 8:53 PM PDT
Nautical Twilight 4:58 AM PDT 9:31 PM PDT
Astronomical Twilight 4:16 AM PDT 10:13 PM PDT
Moon 9:02 PM PDT (8/3) 7:57 AM PDT (8/3)
Length of Visible Light 15h 17m
Length of Day
14h 16m
Full, 97% of the Moon is Illuminated
Aug 3
Full
Aug 9
Last Quarter
Aug 17
New
Aug 24
First Quarter
Aug 31
Full

Hourly Weather History & Observations

Time (PDT) Temp. Dew Point Humidity Pressure Visibility Wind Dir Wind Speed Gust Speed Precip Events Conditions
12:56 AM 61.0 °F 41.0 °F 48% 30.00 in 10.0 mi Calm Calm - N/A   Clear
1:56 AM 59.0 °F 42.1 °F 53% 29.99 in 10.0 mi Calm Calm - N/A   Clear
2:56 AM 57.9 °F 43.0 °F 58% 29.99 in 10.0 mi Calm Calm - N/A   Clear
3:56 AM 55.9 °F 42.1 °F 60% 29.99 in 10.0 mi ENE 3.5 mph - N/A   Clear
4:56 AM 53.1 °F 42.1 °F 66% 30.00 in 10.0 mi Calm Calm - N/A   Clear
5:56 AM 51.1 °F 42.1 °F 71% 30.01 in 10.0 mi Calm Calm - N/A   Clear
6:56 AM 54.0 °F 43.0 °F 66% 30.01 in 10.0 mi NE 3.5 mph - N/A   Clear
7:56 AM 64.0 °F 48.9 °F 58% 30.01 in 10.0 mi Calm Calm - N/A   Clear
8:56 AM 73.0 °F 46.9 °F 39% 29.99 in 10.0 mi Calm Calm - N/A   Clear
9:56 AM 77.0 °F 45.0 °F 32% 29.98 in 10.0 mi Calm Calm - N/A   Clear
10:56 AM 82.0 °F 46.9 °F 29% 29.96 in 10.0 mi Calm Calm - N/A   Clear
11:56 AM 88.0 °F 48.9 °F 26% 29.95 in 10.0 mi Calm Calm - N/A   Clear
12:56 PM 91.0 °F 45.0 °F 20% 29.94 in 10.0 mi Calm Calm - N/A   Clear
1:56 PM 91.0 °F 45.0 °F 20% 29.92 in 10.0 mi Calm Calm - N/A   Clear
2:56 PM 93.9 °F 45.0 °F 18% 29.90 in 10.0 mi Calm Calm - N/A   Clear
3:56 PM 93.0 °F 43.0 °F 18% 29.89 in 10.0 mi Calm Calm - N/A   Clear
4:56 PM 91.9 °F 42.1 °F 18% 29.88 in 10.0 mi Variable 3.5 mph - N/A   Clear
5:56 PM 90.0 °F 41.0 °F 18% 29.88 in 10.0 mi Calm Calm - N/A   Clear
6:56 PM 87.1 °F 43.0 °F 21% 29.87 in 10.0 mi Calm Calm - N/A   Clear
7:56 PM 79.0 °F 48.9 °F 35% 29.88 in 10.0 mi Calm Calm - N/A   Clear
8:56 PM 71.1 °F 48.9 °F 45% 29.89 in 10.0 mi Calm Calm - N/A   Clear
9:56 PM 68.0 °F 46.9 °F 47% 29.91 in 10.0 mi Calm Calm - N/A   Clear
10:56 PM 66.0 °F 44.1 °F 45% 29.91 in 10.0 mi Calm Calm - N/A   Clear
11:56 PM 63.0 °F 45.0 °F 52% 29.91 in 10.0 mi Calm Calm - N/A   Clear